Total_Precipitation_Accumulation
0.01 0.01 0.01 0.03 0.04 0.06 0.10 0.12 0.13 0.12 0.12 0.12 0.14 0.15 0.15 0.14 0.14 0.15 0.15 0.15 0.18 0.21 0.24 0.30 0.35 0.39 0.41 0.39 0.47 0.49 0.46 0.54 0.51 0.41 0.40 0.39 0.35 0.27 0.16 0.11 0.07 0.04 0.03
0.02 0.01 0.01 0.01 0.02 0.03 0.06 0.09 0.10 0.11 0.11 0.11 0.11 0.12 0.12 0.11 0.13 0.18 0.23 0.20 0.19 0.21 0.31 0.43 0.46 0.49 0.44 0.40 0.45 0.44 0.43 0.56 0.55 0.38 0.34 0.31 0.32 0.26 0.19 0.14 0.09 0.04 0.02
0.01 0.01 0.00 0.00 0.00 0.01 0.03 0.05 0.06 0.08 0.10 0.10 0.11 0.10 0.10 0.09 0.10 0.16 0.24 0.22 0.24 0.31 0.42 0.44 0.42 0.47 0.43 0.39 0.40 0.39 0.41 0.55 0.53 0.40 0.34 0.34 0.33 0.23 0.18 0.13 0.08 0.05 0.02
0.00 0.00 0.01 0.01 0.01 0.01 0.01 0.02 0.03 0.05 0.07 0.09 0.11 0.11 0.11 0.09 0.09 0.14 0.21 0.25 0.32 0.45 0.43 0.29 0.30 0.37 0.37 0.33 0.30 0.28 0.31 0.36 0.36 0.35 0.35 0.36 0.33 0.27 0.21 0.15 0.09 0.05 0.03
0.04 0.04 0.04 0.04 0.05 0.05 0.05 0.04 0.04 0.04 0.05 0.08 0.10 0.10 0.10 0.09 0.08 0.15 0.22 0.18 0.20 0.25 0.23 0.16 0.15 0.21 0.29 0.28 0.23 0.22 0.24 0.24 0.25 0.26 0.27 0.29 0.32 0.30 0.23 0.15 0.11 0.06 0.03
0.04 0.04 0.03 0.03 0.03 0.04 0.04 0.03 0.03 0.03 0.06 0.09 0.12 0.12 0.12 0.10 0.10 0.11 0.13 0.14 0.14 0.13 0.12 0.11 0.07 0.05 0.09 0.17 0.20 0.21 0.23 0.23 0.23 0.25 0.27 0.26 0.25 0.25 0.20 0.13 0.08 0.05 0.04
0.01 0.02 0.02 0.02 0.02 0.02 0.02 0.03 0.03 0.04 0.06 0.10 0.13 0.14 0.15 0.15 0.13 0.08 0.07 0.08 0.09 0.08 0.09 0.08 0.06 0.03 0.03 0.04 0.08 0.10 0.13 0.16 0.18 0.22 0.26 0.26 0.24 0.21 0.16 0.13 0.09 0.07 0.05
0.00 0.01 0.01 0.02 0.03 0.04 0.05 0.05 0.07 0.07 0.08 0.11 0.14 0.17 0.19 0.19 0.16 0.11 0.10 0.08 0.08 0.09 0.09 0.08 0.06 0.03 0.02 0.01 0.02 0.03 0.05 0.07 0.09 0.12 0.16 0.18 0.18 0.16 0.13 0.11 0.09 0.08 0.05
0.02 0.03 0.05 0.06 0.06 0.07 0.09 0.11 0.13 0.13 0.13 0.13 0.14 0.18 0.20 0.22 0.20 0.14 0.12 0.09 0.10 0.11 0.11 0.10 0.08 0.05 0.02 0.01 0.01 0.01 0.02 0.04 0.07 0.09 0.10 0.11 0.13 0.11 0.08 0.06 0.05 0.03 0.04
0.02 0.04 0.06 0.09 0.11 0.11 0.12 0.14 0.16 0.17 0.18 0.17 0.15 0.18 0.22 0.25 0.24 0.18 0.15 0.12 0.14 0.15 0.16 0.14 0.12 0.07 0.03 0.01 0.02 0.02 0.01 0.01 0.02 0.04 0.05 0.06 0.05 0.05 0.05 0.04 0.03 0.02 0.02
0.03 0.04 0.05 0.09 0.14 0.15 0.17 0.19 0.21 0.21 0.23 0.24 0.22 0.21 0.25 0.29 0.32 0.24 0.19 0.16 0.19 0.23 0.24 0.21 0.17 0.12 0.05 0.02 0.02 0.03 0.01 0.01 0.01 0.01 0.02 0.02 0.02 0.02 0.02 0.02 0.02 0.02 0.01
0.07 0.08 0.08 0.12 0.17 0.17 0.21 0.24 0.27 0.29 0.32 0.33 0.35 0.33 0.32 0.33 0.36 0.33 0.24 0.18 0.23 0.30 0.33 0.31 0.26 0.20 0.09 0.03 0.01 0.01 0.01 0.01 0.01 0.01 0.02 0.01 0.01 0.01 0.01 0.01 0.01 0.00 0.00
0.10 0.10 0.12 0.15 0.24 0.34 0.34 0.29 0.30 0.32 0.33 0.35 0.40 0.44 0.44 0.43 0.39 0.37 0.30 0.22 0.26 0.36 0.40 0.42 0.37 0.28 0.15 0.06 0.02 0.01 0.00 0.00 0.01 0.01 0.01 0.01 0.01 0.00 0.00 0.00 0.00 0.00 0.00
0.15 0.14 0.15 0.19 0.30 0.51 0.58 0.48 0.39 0.35 0.35 0.39 0.40 0.42 0.46 0.50 0.46 0.38 0.31 0.26 0.32 0.44 0.46 0.43 0.41 0.33 0.21 0.10 0.04 0.01 0.00 0.00 0.00 0.00 0.00 0.00 0.00 0.00 0.00 0.00 0.00 0.00 0.00
0.19 0.18 0.18 0.22 0.32 0.51 0.63 0.61 0.51 0.47 0.45 0.44 0.43 0.43 0.41 0.40 0.42 0.41 0.31 0.29 0.38 0.48 0.47 0.46 0.43 0.35 0.23 0.13 0.06 0.02 0.00 0.00 0.00 0.00 0.00 0.00 0.00 0.00 0.00 0.00 0.00 0.00 0.00
0.25 0.23 0.24 0.25 0.31 0.48 0.67 0.71 0.57 0.46 0.44 0.42 0.37 0.35 0.33 0.27 0.29 0.34 0.32 0.30 0.37 0.42 0.40 0.43 0.42 0.33 0.21 0.12 0.05 0.02 0.01 0.00 0.00 0.00 0.00 0.00 0.00 0.00 0.00 0.00 0.00 0.00 0.00
0.29 0.28 0.27 0.26 0.28 0.38 0.60 0.80 0.80 0.59 0.45 0.39 0.30 0.21 0.19 0.16 0.20 0.26 0.33 0.31 0.31 0.32 0.29 0.30 0.30 0.25 0.16 0.09 0.03 0.01 0.00 0.00 0.00 0.00 0.00 0.00 0.00 0.00 0.00 0.00 0.00 0.00 0.00
0.28 0.27 0.24 0.23 0.22 0.29 0.49 0.74 0.90 0.83 0.67 0.49 0.29 0.15 0.12 0.11 0.15 0.25 0.33 0.32 0.29 0.25 0.19 0.18 0.16 0.15 0.10 0.05 0.02 0.01 0.00 0.00 0.00 0.00 0.00 0.00 0.00 0.00 0.00 0.00 0.00 0.00 0.00
0.25 0.23 0.21 0.20 0.20 0.23 0.39 0.63 0.81 0.87 0.80 0.71 0.45 0.17 0.11 0.13 0.18 0.27 0.31 0.29 0.24 0.16 0.11 0.09 0.08 0.06 0.04 0.02 0.01 0.00 0.00 0.00 0.00 0.00 0.00 0.00 0.00 0.00 0.00 0.00 0.00 0.00 0.00
0.21 0.16 0.14 0.15 0.16 0.19 0.29 0.49 0.72 0.85 0.80 0.75 0.58 0.24 0.09 0.09 0.12 0.22 0.28 0.28 0.23 0.13 0.07 0.05 0.03 0.02 0.01 0.00 0.00 0.00 0.00 0.00 0.00 0.00 0.00 0.00 0.00 0.00 0.00 0.00 0.00 0.00 0.00
0.20 0.15 0.10 0.10 0.15 0.20 0.26 0.43 0.65 0.79 0.74 0.68 0.56 0.26 0.08 0.06 0.07 0.13 0.19 0.22 0.21 0.12 0.06 0.03 0.01 0.00 0.00 0.00 0.00 0.00 0.00 0.00 0.00 0.00 0.00 0.00 0.00 0.00 0.00 0.00 0.00 0.00 0.00
0.18 0.18 0.15 0.15 0.18 0.21 0.27 0.42 0.61 0.73 0.67 0.60 0.47 0.23 0.09 0.07 0.07 0.11 0.14 0.14 0.14 0.09 0.05 0.02 0.01 0.00 0.00 0.00 0.00 0.00 0.00 0.00 0.00 0.00 0.00 0.00 0.00 0.00 0.00 0.00 0.00 0.00 0.00
0.16 0.17 0.17 0.17 0.19 0.18 0.28 0.43 0.56 0.61 0.54 0.46 0.33 0.15 0.06 0.05 0.06 0.08 0.09 0.09 0.09 0.06 0.03 0.02 0.01 0.00 0.00 0.00 0.00 0.00 0.00 0.00 0.00 0.00 0.00 0.00 0.00 0.00 0.00 0.00 0.00 0.00 0.00
0.16 0.19 0.20 0.20 0.21 0.23 0.32 0.44 0.49 0.47 0.39 0.29 0.19 0.10 0.06 0.04 0.04 0.04 0.05 0.05 0.05 0.03 0.02 0.02 0.01 0.00 0.00 0.00 0.00 0.00 0.00 0.00 0.00 0.00 0.00 0.00 0.00 0.00 0.00 0.00 0.00 0.00 0.00
0.14 0.17 0.21 0.25 0.27 0.29 0.35 0.40 0.38 0.32 0.22 0.15 0.09 0.05 0.04 0.04 0.03 0.02 0.02 0.03 0.03 0.02 0.01 0.01 0.01 0.00 0.00 0.00 0.00 0.00 0.00 0.00 0.00 0.00 0.00 0.00 0.00 0.00 0.00 0.00 0.00 0.00 0.00
0.11 0.13 0.16 0.21 0.23 0.24 0.26 0.27 0.25 0.17 0.11 0.07 0.04 0.03 0.03 0.03 0.02 0.01 0.01 0.01 0.01 0.01 0.01 0.01 0.00 0.00 0.00 0.00 0.00 0.00 0.00 0.00 0.00 0.00 0.00 0.00 0.00 0.00 0.00 0.00 0.00 0.00 0.00